N328AP KTEX-LFPG

Flight info

Callsign N328AP
Flight time N/A
Altitude 41000
Route DBL J60 DVV J114 GEP J21 DLH Q924 MECNU DCT 51N083W 54N075W 56N066W/M087F450 58N056W 59N046W 59N035W 58N024W DCT BILTO/N0504F450 DCT PEVAN DCT TADEX DCT SOSIM L15 HON UL612 WOD UM605 BIBAX
Aircraft GLF6/M-SBDE2E3FGHIJ4J5M1RWXY/LB1D1

Departure

Time 2026-05-09 02:23
Airport Telluride Regional Airport (KTEX)

Arrival

Time N/A
Airport Charles de Gaulle International Airport (LFPG)
Time Latitude Longitude Altitude Speed Heading
2026-05-09 02:07 37.95388 -107.90197 9088 ft 0 kts 195°
2026-05-09 02:18 37.95353 -107.90186 9088 ft 8 kts 132°
2026-05-09 02:18 37.95334 -107.90104 9092 ft 12 kts 104°
2026-05-09 02:18 37.95301 -107.89958 9099 ft 19 kts 105°
2026-05-09 02:19 37.95272 -107.89825 9105 ft 12 kts 105°
2026-05-09 02:19 37.95256 -107.89753 9109 ft 5 kts 105°
2026-05-09 02:19 37.95244 -107.89702 9111 ft 7 kts 108°
2026-05-09 02:19 37.95179 -107.89677 9111 ft 14 kts 193°
2026-05-09 02:20 37.95143 -107.89739 9108 ft 4 kts 281°
2026-05-09 02:20 37.95143 -107.89742 9108 ft 0 kts 281°
2026-05-09 02:21 37.95144 -107.89745 9107 ft 2 kts 281°
2026-05-09 02:22 37.95184 -107.89936 9099 ft 52 kts 285°
2026-05-09 02:22 37.95329 -107.90626 9064 ft 109 kts 285°
2026-05-09 02:22 37.95568 -107.91763 9092 ft 150 kts 285°
2026-05-09 02:22 37.95834 -107.93059 9512 ft 155 kts 285°
2026-05-09 02:23 37.96139 -107.94470 9749 ft 182 kts 285°
2026-05-09 02:23 37.96496 -107.96140 10111 ft 201 kts 285°
2026-05-09 02:23 37.96855 -107.97841 10791 ft 204 kts 285°
2026-05-09 02:23 37.97214 -107.99577 11443 ft 208 kts 285°
2026-05-09 02:24 37.97620 -108.01562 11579 ft 243 kts 285°
2026-05-09 02:24 37.98028 -108.03578 12309 ft 251 kts 285°
2026-05-09 02:24 37.98498 -108.05905 12299 ft 291 kts 285°
2026-05-09 02:24 37.99037 -108.08544 12337 ft 328 kts 285°
2026-05-09 02:25 37.99623 -108.11405 12856 ft 345 kts 285°
2026-05-09 02:25 38.00228 -108.14393 13656 ft 352 kts 285°
2026-05-09 02:25 38.00831 -108.17402 14636 ft 355 kts 285°
2026-05-09 02:25 38.01438 -108.20451 15612 ft 358 kts 285°
2026-05-09 02:26 38.02304 -108.23250 16462 ft 359 kts 304°
2026-05-09 02:26 38.04145 -108.25434 17408 ft 363 kts 329°
2026-05-09 02:26 38.06549 -108.26363 18289 ft 372 kts 353°
2026-05-09 02:26 38.09172 -108.26076 19182 ft 381 kts
2026-05-09 02:27 38.11722 -108.24925 20043 ft 393 kts 23°
2026-05-09 02:27 38.14117 -108.23099 20993 ft 400 kts 30°
2026-05-09 02:27 38.16386 -108.21057 21830 ft 407 kts 32°
2026-05-09 02:27 38.18663 -108.18873 22687 ft 413 kts 35°
2026-05-09 02:28 38.20555 -108.16026 23480 ft 428 kts 52°
2026-05-09 02:28 38.22165 -108.12867 24303 ft 433 kts 53°
2026-05-09 02:28 38.23809 -108.09614 25130 ft 438 kts 53°
2026-05-09 02:28 38.25460 -108.06338 25939 ft 442 kts 53°
2026-05-09 02:29 38.27135 -108.03005 26728 ft 446 kts 53°
2026-05-09 02:29 38.28803 -107.99685 27416 ft 452 kts 53°
2026-05-09 02:29 38.30509 -107.96285 28145 ft 456 kts 53°
2026-05-09 02:29 38.32217 -107.92878 28773 ft 462 kts 54°
2026-05-09 02:30 38.33952 -107.89410 29465 ft 466 kts 54°
2026-05-09 02:30 38.35700 -107.85915 30132 ft 470 kts 54°
2026-05-09 02:30 38.37472 -107.82366 30789 ft 474 kts 54°
2026-05-09 02:30 38.39237 -107.78828 31442 ft 476 kts 54°
2026-05-09 02:31 38.41009 -107.75272 32285 ft 474 kts 54°
2026-05-09 02:31 38.42778 -107.71719 33093 ft 471 kts 54°
2026-05-09 02:31 38.44508 -107.68240 33863 ft 469 kts 54°
2026-05-09 02:31 38.46253 -107.64728 34736 ft 465 kts 54°
2026-05-09 02:32 38.47973 -107.61262 35601 ft 461 kts 53°
2026-05-09 02:32 38.49668 -107.57842 36411 ft 458 kts 53°
2026-05-09 02:32 38.51365 -107.54416 37154 ft 456 kts 53°
2026-05-09 02:32 38.53045 -107.51022 37843 ft 454 kts 53°
2026-05-09 02:33 38.54741 -107.47590 38485 ft 453 kts 53°
2026-05-09 02:33 38.56411 -107.44206 39072 ft 452 kts 53°
2026-05-09 02:33 38.58107 -107.40768 39706 ft 451 kts 53°
2026-05-09 02:33 38.59781 -107.37370 40282 ft 449 kts 53°
2026-05-09 02:34 38.61422 -107.34036 40705 ft 449 kts 53°
2026-05-09 02:34 38.63082 -107.30659 41202 ft 448 kts 53°
2026-05-09 02:34 38.64764 -107.27235 41558 ft 450 kts 53°
2026-05-09 02:34 38.66417 -107.23863 41984 ft 450 kts 53°
2026-05-09 02:35 38.68082 -107.20467 42387 ft 450 kts 53°
2026-05-09 02:35 38.69736 -107.17088 42759 ft 450 kts 54°
2026-05-09 02:35 38.71410 -107.13664 43153 ft 449 kts 54°
2026-05-09 02:35 38.73066 -107.10277 43489 ft 450 kts 54°
2026-05-09 02:36 38.74714 -107.06897 43798 ft 450 kts 54°
2026-05-09 02:36 38.76379 -107.03483 44148 ft 450 kts 54°
2026-05-09 02:36 38.78045 -107.00063 44441 ft 450 kts 54°
2026-05-09 02:36 38.79723 -106.96613 44731 ft 450 kts 54°
2026-05-09 02:37 38.81377 -106.93209 44963 ft 450 kts 54°
2026-05-09 02:37 38.83032 -106.89799 45148 ft 451 kts 54°
2026-05-09 02:37 38.84698 -106.86362 45376 ft 451 kts 54°
2026-05-09 02:38 38.87987 -106.79569 45399 ft 447 kts 54°
2026-05-09 02:38 38.91285 -106.72743 45395 ft 454 kts 54°
2026-05-09 02:39 38.94650 -106.65763 45395 ft 466 kts 54°
2026-05-09 02:39 38.98145 -106.58498 45391 ft 477 kts 54°
2026-05-09 02:40 39.01653 -106.51185 45399 ft 485 kts 54°
2026-05-09 02:40 39.05072 -106.44044 45386 ft 489 kts 54°
2026-05-09 02:41 39.08651 -106.36550 45378 ft 491 kts 54°
2026-05-09 02:41 39.12275 -106.28947 45373 ft 491 kts 55°
2026-05-09 02:42 39.15818 -106.21489 45361 ft 483 kts 54°
2026-05-09 02:42 39.19342 -106.14062 45357 ft 480 kts 54°
2026-05-09 02:43 39.22813 -106.06728 45372 ft 480 kts 54°
2026-05-09 02:43 39.26320 -105.99300 45381 ft 481 kts 54°
2026-05-09 02:44 39.29810 -105.91888 45393 ft 482 kts 54°
2026-05-09 02:44 39.33297 -105.84469 45378 ft 481 kts 54°
2026-05-09 02:45 39.36779 -105.77042 45374 ft 481 kts 54°
2026-05-09 02:45 39.40258 -105.69604 45365 ft 481 kts 54°
2026-05-09 02:46 39.43724 -105.62173 45369 ft 481 kts 54°
2026-05-09 02:46 39.47200 -105.54707 45335 ft 484 kts 54°
2026-05-09 02:47 39.50706 -105.47156 45318 ft 491 kts 54°
2026-05-09 02:47 39.54246 -105.39513 45308 ft 493 kts 54°
2026-05-09 02:48 39.57763 -105.31902 45282 ft 493 kts 55°
2026-05-09 02:48 39.61350 -105.24125 45222 ft 493 kts 55°
2026-05-09 02:49 39.64860 -105.16490 45159 ft 492 kts 55°
2026-05-09 02:49 39.68404 -105.08766 45091 ft 490 kts 55°
2026-05-09 02:50 39.71892 -105.01143 45069 ft 490 kts 55°
2026-05-09 02:50 39.75420 -104.93415 45057 ft 491 kts 55°
2026-05-09 02:51 39.78908 -104.85756 45044 ft 491 kts 55°
2026-05-09 02:51 39.82399 -104.78070 45039 ft 492 kts 55°
2026-05-09 02:52 39.85901 -104.70340 45038 ft 493 kts 55°
2026-05-09 02:52 39.89440 -104.62664 45018 ft 489 kts 48°
2026-05-09 02:53 39.94065 -104.56323 45007 ft 484 kts 40°
2026-05-09 02:53 39.98821 -104.49994 45015 ft 484 kts 40°
2026-05-09 02:54 40.03527 -104.43711 45052 ft 483 kts 41°
2026-05-09 02:54 40.08270 -104.37362 45054 ft 483 kts 40°
2026-05-09 02:55 40.13010 -104.31004 45058 ft 485 kts 41°
2026-05-09 02:55 40.17737 -104.24652 45055 ft 485 kts 41°
2026-05-09 02:56 40.22443 -104.18314 45054 ft 486 kts 41°
2026-05-09 02:56 40.27184 -104.11914 45069 ft 487 kts 41°
2026-05-09 02:57 40.31922 -104.05505 45051 ft 488 kts 41°
2026-05-09 02:57 40.36673 -103.99065 45055 ft 489 kts 41°
2026-05-09 02:58 40.41405 -103.92637 45046 ft 488 kts 41°
2026-05-09 02:58 40.46131 -103.86201 45033 ft 487 kts 41°
2026-05-09 02:59 40.50870 -103.79734 45039 ft 488 kts 41°
2026-05-09 02:59 40.55615 -103.73247 45052 ft 490 kts 41°
2026-05-09 03:00 40.60332 -103.66781 45055 ft 491 kts 41°
2026-05-09 03:00 40.65067 -103.60277 45055 ft 491 kts 41°
2026-05-09 03:01 40.69831 -103.53722 45052 ft 491 kts 41°
2026-05-09 03:01 40.74566 -103.47189 45042 ft 492 kts 41°
2026-05-09 03:02 40.79299 -103.40646 45035 ft 493 kts 41°
2026-05-09 03:02 40.84061 -103.34048 45032 ft 493 kts 42°
2026-05-09 03:03 40.88828 -103.27428 45018 ft 493 kts 41°
2026-05-09 03:03 40.93583 -103.20809 45033 ft 494 kts 41°
2026-05-09 03:04 40.98337 -103.14177 45022 ft 495 kts 41°
2026-05-09 03:04 41.03082 -103.07543 45004 ft 495 kts 41°
2026-05-09 03:05 41.07872 -103.00812 44968 ft 497 kts 44°
2026-05-09 03:05 41.09735 -102.96957 44996 ft 507 kts 62°
2026-05-09 03:05 41.10855 -102.92372 44964 ft 515 kts 70°
2026-05-09 03:06 41.12734 -102.83131 44985 ft 518 kts 70°
2026-05-09 03:06 41.14595 -102.73859 44992 ft 519 kts 71°
2026-05-09 03:07 41.16456 -102.64550 44987 ft 519 kts 71°
2026-05-09 03:07 41.18301 -102.55272 44995 ft 518 kts 71°
2026-05-09 03:08 41.20122 -102.46073 45010 ft 517 kts 71°
2026-05-09 03:08 41.21954 -102.36778 44982 ft 518 kts 70°
2026-05-09 03:09 41.23795 -102.27392 44948 ft 520 kts 71°
2026-05-09 03:09 41.25613 -102.18077 44961 ft 521 kts 71°
2026-05-09 03:10 41.27420 -102.08778 44927 ft 520 kts 71°
2026-05-09 03:10 41.29224 -101.99448 44951 ft 520 kts 71°
2026-05-09 03:11 41.31018 -101.90123 44936 ft 520 kts 71°
2026-05-09 03:11 41.32814 -101.80750 44927 ft 520 kts 71°
2026-05-09 03:12 41.34591 -101.71427 44941 ft 520 kts 71°
2026-05-09 03:12 41.36372 -101.62041 44938 ft 521 kts 71°
2026-05-09 03:13 41.39021 -101.47993 44917 ft 520 kts 71°
2026-05-09 03:13 41.40792 -101.38546 44941 ft 521 kts 71°
2026-05-09 03:14 41.42561 -101.29067 44922 ft 523 kts 72°
2026-05-09 03:14 41.44305 -101.19665 44917 ft 523 kts 72°
2026-05-09 03:15 41.46049 -101.10222 44920 ft 524 kts 72°
2026-05-09 03:15 41.47790 -101.00747 44919 ft 524 kts 72°
2026-05-09 03:16 41.49520 -100.91287 44930 ft 524 kts 72°
2026-05-09 03:16 41.51239 -100.81840 44935 ft 524 kts 72°
2026-05-09 03:17 41.53291 -100.72508 44929 ft 512 kts 56°
2026-05-09 03:17 41.57024 -100.64501 44944 ft 510 kts 52°
2026-05-09 03:18 41.60844 -100.56448 44939 ft 510 kts 52°
2026-05-09 03:18 41.64635 -100.48435 44923 ft 509 kts 52°
2026-05-09 03:19 41.68446 -100.40356 44931 ft 509 kts 52°
2026-05-09 03:19 41.72238 -100.32301 44935 ft 510 kts 53°
2026-05-09 03:20 41.76062 -100.24149 44916 ft 510 kts 52°
2026-05-09 03:20 41.79837 -100.16084 44901 ft 511 kts 53°
2026-05-09 03:21 41.83627 -100.07966 44894 ft 512 kts 52°
2026-05-09 03:21 41.87414 -99.99831 44889 ft 510 kts 52°
2026-05-09 03:22 41.91182 -99.91714 44885 ft 511 kts 53°
2026-05-09 03:22 41.94936 -99.83606 44887 ft 511 kts 53°
2026-05-09 03:23 41.98702 -99.75451 44884 ft 512 kts 53°
2026-05-09 03:23 42.02481 -99.67245 44889 ft 511 kts 53°
2026-05-09 03:24 42.06216 -99.59112 44884 ft 510 kts 53°
2026-05-09 03:24 42.09931 -99.51000 44875 ft 510 kts 53°
2026-05-09 03:25 42.13701 -99.42747 44887 ft 513 kts 53°
2026-05-09 03:25 42.17471 -99.34470 44882 ft 513 kts 53°
2026-05-09 03:26 42.21225 -99.26206 44877 ft 513 kts 53°
2026-05-09 03:26 42.24944 -99.17993 44869 ft 512 kts 53°
2026-05-09 03:27 42.28659 -99.09769 44871 ft 512 kts 53°
2026-05-09 03:27 42.32391 -99.01484 44873 ft 513 kts 53°
2026-05-09 03:28 42.36108 -98.93206 44871 ft 514 kts 53°
2026-05-09 03:28 42.39808 -98.84942 44868 ft 512 kts 53°
2026-05-09 03:29 42.43478 -98.76725 44863 ft 511 kts 53°
2026-05-09 03:29 42.47223 -98.68501 44845 ft 506 kts 47°
2026-05-09 03:30 42.51771 -98.61298 44844 ft 503 kts 43°
2026-05-09 03:30 42.56373 -98.54077 44847 ft 505 kts 43°
2026-05-09 03:31 42.60976 -98.46831 44828 ft 504 kts 43°
2026-05-09 03:31 42.65566 -98.39584 44829 ft 504 kts 43°
2026-05-09 03:32 42.70163 -98.32308 44813 ft 505 kts 44°
2026-05-09 03:32 42.74787 -98.24973 44813 ft 504 kts 44°
2026-05-09 03:33 42.79340 -98.17733 44806 ft 504 kts 44°
2026-05-09 03:33 42.83900 -98.10462 44801 ft 504 kts 44°
2026-05-09 03:34 42.88492 -98.03124 44822 ft 505 kts 44°
2026-05-09 03:34 42.93040 -97.95836 44804 ft 505 kts 44°
2026-05-09 03:35 42.97601 -97.88509 44805 ft 505 kts 44°
2026-05-09 03:35 43.02190 -97.81119 44810 ft 505 kts 44°
2026-05-09 03:36 43.06753 -97.73751 44805 ft 506 kts 44°
2026-05-09 03:36 43.11320 -97.66360 44813 ft 508 kts 44°
2026-05-09 03:37 43.15918 -97.58900 44819 ft 508 kts 44°
2026-05-09 03:37 43.20488 -97.51466 44806 ft 508 kts 44°
2026-05-09 03:38 43.25039 -97.44041 44806 ft 507 kts 44°
2026-05-09 03:38 43.29592 -97.36598 44803 ft 507 kts 44°
2026-05-09 03:39 43.34153 -97.29120 44796 ft 508 kts 45°
2026-05-09 03:39 43.38705 -97.21638 44788 ft 509 kts 45°
2026-05-09 03:40 43.43248 -97.14153 44788 ft 509 kts 45°
2026-05-09 03:40 43.47809 -97.06617 44788 ft 509 kts 45°
2026-05-09 03:41 43.52358 -96.99083 44793 ft 509 kts 45°
2026-05-09 03:41 43.56896 -96.91547 44787 ft 508 kts 45°
2026-05-09 03:42 43.61416 -96.84022 44790 ft 509 kts 45°
2026-05-09 03:42 43.65783 -96.76268 44785 ft 515 kts 52°
2026-05-09 03:43 43.69669 -96.67961 44793 ft 517 kts 52°
2026-05-09 03:43 43.73562 -96.59564 44786 ft 518 kts 52°
2026-05-09 03:44 43.77472 -96.51097 44774 ft 518 kts 52°
2026-05-09 03:44 43.81346 -96.42686 44783 ft 518 kts 52°
2026-05-09 03:45 43.85205 -96.34281 44790 ft 519 kts 53°
2026-05-09 03:45 43.89129 -96.25712 44792 ft 519 kts 53°
2026-05-09 03:46 43.92995 -96.17242 44780 ft 520 kts 53°
2026-05-09 03:46 43.96871 -96.08727 44769 ft 520 kts 53°
2026-05-09 03:47 44.00760 -96.00159 44775 ft 521 kts 53°
2026-05-09 03:47 44.04627 -95.91614 44774 ft 521 kts 53°
2026-05-09 03:48 44.08497 -95.83033 44773 ft 520 kts 53°
2026-05-09 03:48 44.12361 -95.74444 44773 ft 520 kts 53°
2026-05-09 03:49 44.16214 -95.65854 44765 ft 519 kts 53°
2026-05-09 03:49 44.20036 -95.57307 44772 ft 519 kts 53°
2026-05-09 03:50 44.23857 -95.48734 44764 ft 520 kts 53°
2026-05-09 03:50 44.27687 -95.40120 44759 ft 520 kts 53°
2026-05-09 03:51 44.31459 -95.31606 44752 ft 519 kts 54°
2026-05-09 03:51 44.35312 -95.22888 44744 ft 519 kts 54°
2026-05-09 03:52 44.39107 -95.14275 44751 ft 520 kts 54°
2026-05-09 03:52 44.42908 -95.05621 44754 ft 520 kts 54°
2026-05-09 03:53 44.46710 -94.96936 44747 ft 520 kts 54°
2026-05-09 03:53 44.50476 -94.88309 44740 ft 519 kts 54°
2026-05-09 03:54 44.54248 -94.79641 44740 ft 519 kts 54°
2026-05-09 03:54 44.58005 -94.70986 44738 ft 519 kts 54°
2026-05-09 03:55 44.61773 -94.62274 44734 ft 519 kts 54°
2026-05-09 03:55 44.65535 -94.53550 44738 ft 520 kts 55°
2026-05-09 03:56 44.69259 -94.44889 44738 ft 518 kts 54°
2026-05-09 03:56 44.73008 -94.36145 44737 ft 520 kts 55°
2026-05-09 03:57 44.76775 -94.27327 44729 ft 521 kts 56°
2026-05-09 03:57 44.80492 -94.18602 44731 ft 520 kts 55°
2026-05-09 03:58 44.84206 -94.09860 44722 ft 520 kts 55°
2026-05-09 03:58 44.87919 -94.01086 44715 ft 519 kts 55°
2026-05-09 03:59 44.91624 -93.92311 44711 ft 520 kts 55°
2026-05-09 03:59 44.95324 -93.83518 44706 ft 521 kts 55°
2026-05-09 04:00 44.99028 -93.74686 44707 ft 520 kts 55°
2026-05-09 04:00 45.02737 -93.65814 44706 ft 521 kts 55°
2026-05-09 04:01 45.06403 -93.57024 44711 ft 521 kts 55°
2026-05-09 04:01 45.10075 -93.48183 44701 ft 521 kts 55°
2026-05-09 04:02 45.13885 -93.39403 44696 ft 515 kts 45°
2026-05-09 04:02 45.16513 -93.36109 44765 ft 501 kts 27°
2026-05-09 04:02 45.19617 -93.33850 44741 ft 498 kts 21°
2026-05-09 04:03 45.25908 -93.29558 44716 ft 500 kts 21°
2026-05-09 04:03 45.32164 -93.25260 44707 ft 499 kts 22°
2026-05-09 04:04 45.38291 -93.21038 44697 ft 499 kts 21°
2026-05-09 04:04 45.44617 -93.16670 44700 ft 499 kts 21°
2026-05-09 04:05 45.50841 -93.12360 44694 ft 499 kts 21°
2026-05-09 04:05 45.57127 -93.07997 44680 ft 498 kts 21°
2026-05-09 04:06 45.63362 -93.03660 44689 ft 498 kts 21°
2026-05-09 04:06 45.69610 -92.99302 44688 ft 499 kts 21°
2026-05-09 04:07 45.75878 -92.94920 44687 ft 499 kts 22°
2026-05-09 04:07 45.82177 -92.90503 44683 ft 499 kts 22°
2026-05-09 04:08 45.88421 -92.86114 44673 ft 498 kts 22°
2026-05-09 04:08 45.94688 -92.81699 44671 ft 498 kts 22°
2026-05-09 04:09 46.00935 -92.77286 44669 ft 498 kts 21°
2026-05-09 04:09 46.07220 -92.72835 44666 ft 498 kts 22°
2026-05-09 04:10 46.13479 -92.68392 44666 ft 499 kts 22°
2026-05-09 04:10 46.19722 -92.63948 44672 ft 499 kts 22°
2026-05-09 04:11 46.25951 -92.59503 44673 ft 499 kts 22°
2026-05-09 04:11 46.32219 -92.55019 44669 ft 500 kts 22°
2026-05-09 04:12 46.38481 -92.50527 44671 ft 500 kts 22°
2026-05-09 04:12 46.44700 -92.46056 44657 ft 500 kts 22°
2026-05-09 04:13 46.50984 -92.41526 44646 ft 500 kts 22°
2026-05-09 04:13 46.57243 -92.37000 44653 ft 500 kts 22°
2026-05-09 04:14 46.63520 -92.32452 44651 ft 501 kts 22°
2026-05-09 04:14 46.69793 -92.27895 44647 ft 504 kts 23°
2026-05-09 04:15 46.76116 -92.23289 44654 ft 509 kts 23°
2026-05-09 04:15 46.81862 -92.17195 44740 ft 519 kts 46°
2026-05-09 04:16 46.84173 -92.13092 44624 ft 524 kts 47°
2026-05-09 04:16 46.86475 -92.08929 44669 ft 525 kts 47°
2026-05-09 04:16 46.91058 -92.00584 44660 ft 526 kts 47°
2026-05-09 04:17 46.95679 -91.92138 44640 ft 527 kts 47°
2026-05-09 04:17 47.00261 -91.83736 44646 ft 526 kts 47°
2026-05-09 04:18 47.04819 -91.75354 44638 ft 525 kts 47°
2026-05-09 04:18 47.09382 -91.66936 44635 ft 522 kts 47°
2026-05-09 04:19 47.13908 -91.58561 44628 ft 521 kts 48°
2026-05-09 04:19 47.18427 -91.50174 44627 ft 520 kts 48°
2026-05-09 04:20 47.22950 -91.41754 44628 ft 521 kts 48°
2026-05-09 04:20 47.27433 -91.33382 44617 ft 521 kts 49°
2026-05-09 04:21 47.31930 -91.25027 44609 ft 521 kts 48°
2026-05-09 04:22 47.38697 -91.12429 44618 ft 521 kts 49°
2026-05-09 04:22 47.43142 -91.03979 44599 ft 521 kts 49°
2026-05-09 04:23 47.47621 -90.95436 44608 ft 520 kts 49°
2026-05-09 04:23 47.52057 -90.86949 44606 ft 519 kts 49°
2026-05-09 04:24 47.56491 -90.78496 44608 ft 520 kts 49°
2026-05-09 04:24 47.60987 -90.69904 44606 ft 520 kts 49°
2026-05-09 04:25 47.65401 -90.61442 44617 ft 520 kts 49°
2026-05-09 04:25 47.69810 -90.52963 44616 ft 521 kts 49°
2026-05-09 04:26 47.74241 -90.44414 44620 ft 520 kts 49°
2026-05-09 04:26 47.78668 -90.35848 44624 ft 520 kts 49°
2026-05-09 04:27 47.83085 -90.27273 44620 ft 520 kts 50°
2026-05-09 04:27 47.87487 -90.18700 44615 ft 520 kts 50°
2026-05-09 04:28 47.91891 -90.10095 44604 ft 520 kts 50°
2026-05-09 04:28 47.96278 -90.01499 44592 ft 520 kts 50°
2026-05-09 04:29 48.00613 -89.92755 44595 ft 521 kts 51°
2026-05-09 04:29 48.04910 -89.83979 44596 ft 522 kts 51°
2026-05-09 04:30 48.09193 -89.75203 44599 ft 521 kts 51°
2026-05-09 04:30 48.13509 -89.66331 44608 ft 521 kts 51°
2026-05-09 04:31 48.17760 -89.57564 44612 ft 520 kts 51°
2026-05-09 04:31 48.22022 -89.48749 44610 ft 519 kts 51°
2026-05-09 04:32 48.26265 -89.39944 44618 ft 520 kts 51°
2026-05-09 04:32 48.30503 -89.31119 44619 ft 521 kts 52°
2026-05-09 04:33 48.34751 -89.22244 44618 ft 520 kts 52°
2026-05-09 04:33 48.38974 -89.13393 44617 ft 520 kts 52°
2026-05-09 04:34 48.43193 -89.04521 44620 ft 520 kts 52°
2026-05-09 04:34 48.47416 -88.95614 44620 ft 520 kts 52°
2026-05-09 04:35 48.51625 -88.86703 44609 ft 520 kts 52°
2026-05-09 04:35 48.55796 -88.77845 44612 ft 520 kts 52°
2026-05-09 04:36 48.59975 -88.68942 44605 ft 520 kts 52°
2026-05-09 04:36 48.64167 -88.59983 44609 ft 519 kts 52°
2026-05-09 04:37 48.68348 -88.51015 44616 ft 519 kts 52°
2026-05-09 04:37 48.72489 -88.42104 44628 ft 519 kts 52°
2026-05-09 04:38 48.76641 -88.33141 44616 ft 519 kts 52°
2026-05-09 04:38 48.80777 -88.24181 44610 ft 519 kts 53°
2026-05-09 04:39 48.84903 -88.15213 44596 ft 520 kts 52°
2026-05-09 04:39 48.89050 -88.06169 44597 ft 520 kts 52°
2026-05-09 04:40 48.93221 -87.97045 44595 ft 520 kts 53°
2026-05-09 04:40 48.97334 -87.88011 44594 ft 520 kts 53°
2026-05-09 04:41 49.01456 -87.78932 44593 ft 519 kts 53°
2026-05-09 04:41 49.05566 -87.69849 44596 ft 518 kts 53°
2026-05-09 04:42 49.09674 -87.60737 44596 ft 518 kts 53°
2026-05-09 04:42 49.13711 -87.51753 44601 ft 518 kts 53°
2026-05-09 04:43 49.17820 -87.42577 44605 ft 518 kts 53°
2026-05-09 04:43 49.21925 -87.33381 44603 ft 519 kts 53°
2026-05-09 04:44 49.26007 -87.24203 44604 ft 519 kts 54°
2026-05-09 04:44 49.30059 -87.15059 44603 ft 519 kts 53°
2026-05-09 04:45 49.34133 -87.05836 44606 ft 519 kts 54°
2026-05-09 04:45 49.38156 -86.96698 44602 ft 518 kts 53°
2026-05-09 04:46 49.42214 -86.87449 44606 ft 518 kts 54°
2026-05-09 04:46 49.46233 -86.78253 44600 ft 518 kts 54°
2026-05-09 04:47 49.50252 -86.69029 44597 ft 518 kts 54°
2026-05-09 04:47 49.54246 -86.59830 44598 ft 518 kts 54°
2026-05-09 04:48 49.58257 -86.50558 44603 ft 518 kts 54°
2026-05-09 04:48 49.62265 -86.41264 44604 ft 519 kts 54°
2026-05-09 04:49 49.66266 -86.31950 44603 ft 519 kts 54°
2026-05-09 04:49 49.70267 -86.22604 44606 ft 519 kts 54°
2026-05-09 04:50 49.74226 -86.13326 44610 ft 519 kts 54°
2026-05-09 04:50 49.78243 -86.03876 44605 ft 519 kts 54°
2026-05-09 04:51 49.82207 -85.94518 44599 ft 519 kts 54°
2026-05-09 04:51 49.86150 -85.85178 44598 ft 519 kts 54°
2026-05-09 04:52 49.90123 -85.75732 44605 ft 520 kts 54°
2026-05-09 04:52 49.94078 -85.66296 44614 ft 520 kts 54°
2026-05-09 04:53 49.98041 -85.56805 44615 ft 520 kts 54°
2026-05-09 04:53 50.01971 -85.47361 44601 ft 519 kts 54°
2026-05-09 04:54 50.05882 -85.37929 44606 ft 519 kts 54°
2026-05-09 04:54 50.09779 -85.28496 44592 ft 520 kts 55°
2026-05-09 04:55 50.13609 -85.19192 44596 ft 521 kts 55°
2026-05-09 04:55 50.17554 -85.09576 44602 ft 522 kts 55°
2026-05-09 04:56 50.21457 -85.00025 44593 ft 521 kts 55°
2026-05-09 04:56 50.25341 -84.90485 44604 ft 520 kts 55°
2026-05-09 04:57 50.29230 -84.80900 44615 ft 520 kts 55°
2026-05-09 04:57 50.33091 -84.71349 44620 ft 520 kts 55°
2026-05-09 04:58 50.36960 -84.61744 44614 ft 520 kts 55°
2026-05-09 04:58 50.40810 -84.52151 44626 ft 520 kts 55°
2026-05-09 04:59 50.44658 -84.42526 44632 ft 521 kts 55°
2026-05-09 04:59 50.48529 -84.32809 44628 ft 522 kts 56°
2026-05-09 05:00 50.52411 -84.23025 44628 ft 522 kts 56°
2026-05-09 05:00 50.56245 -84.13330 44623 ft 522 kts 56°
2026-05-09 05:01 50.60073 -84.03611 44629 ft 522 kts 56°
2026-05-09 05:01 50.63905 -83.93846 44623 ft 522 kts 56°
2026-05-09 05:02 50.67721 -83.84084 44616 ft 522 kts 56°
2026-05-09 05:02 50.71529 -83.74308 44617 ft 522 kts 56°
2026-05-09 05:03 50.75322 -83.64532 44613 ft 522 kts 56°
2026-05-09 05:03 50.79112 -83.54727 44616 ft 522 kts 56°
2026-05-09 05:04 50.82875 -83.44954 44618 ft 523 kts 56°
2026-05-09 05:04 50.86674 -83.35053 44617 ft 523 kts 56°
2026-05-09 05:05 50.90475 -83.25107 44614 ft 523 kts 57°
2026-05-09 05:05 50.94264 -83.15154 44613 ft 524 kts 57°
2026-05-09 05:06 50.98012 -83.05270 44614 ft 525 kts 57°
2026-05-09 05:06 51.01944 -82.95496 44615 ft 524 kts 53°
2026-05-09 05:07 51.06091 -82.86026 44617 ft 524 kts 53°
2026-05-09 05:07 51.10225 -82.76498 44613 ft 523 kts 53°
2026-05-09 05:08 51.14352 -82.66946 44636 ft 522 kts 53°
2026-05-09 05:08 51.18479 -82.57360 44628 ft 522 kts 53°
2026-05-09 05:09 51.22584 -82.47789 44624 ft 522 kts 53°
2026-05-09 05:09 51.26684 -82.38195 44614 ft 522 kts 53°
2026-05-09 05:10 51.30778 -82.28580 44620 ft 522 kts 54°
2026-05-09 05:10 51.34848 -82.18987 44616 ft 522 kts 54°
2026-05-09 05:11 51.38921 -82.09347 44616 ft 522 kts 54°
2026-05-09 05:11 51.42979 -81.99712 44615 ft 522 kts 54°
2026-05-09 05:12 51.47044 -81.90022 44617 ft 522 kts 54°
2026-05-09 05:12 51.51086 -81.80350 44616 ft 522 kts 54°
2026-05-09 05:13 51.55096 -81.70717 44616 ft 522 kts 54°
2026-05-09 05:13 51.59133 -81.60985 44621 ft 522 kts 54°
2026-05-09 05:14 51.63176 -81.51202 44621 ft 522 kts 54°
2026-05-09 05:14 51.67203 -81.41419 44620 ft 522 kts 54°
2026-05-09 05:15 51.71203 -81.31667 44623 ft 522 kts 55°
2026-05-09 05:15 51.75213 -81.21852 44618 ft 522 kts 56°
2026-05-09 05:16 51.79201 -81.12053 44619 ft 522 kts 56°
2026-05-09 05:16 51.83172 -81.02261 44629 ft 521 kts 56°
2026-05-09 05:17 51.87123 -80.92477 44637 ft 521 kts 56°
2026-05-09 05:17 51.91092 -80.82613 44640 ft 521 kts 56°
2026-05-09 05:18 51.95015 -80.72828 44634 ft 522 kts 56°
2026-05-09 05:18 51.98959 -80.62949 44635 ft 523 kts 56°
2026-05-09 05:19 52.02920 -80.52992 44636 ft 523 kts 56°
2026-05-09 05:19 52.06856 -80.43057 44633 ft 522 kts 56°
2026-05-09 05:20 52.10784 -80.33103 44636 ft 522 kts 57°
2026-05-09 05:20 52.14706 -80.23128 44627 ft 521 kts 57°
2026-05-09 05:21 52.18592 -80.13206 44632 ft 521 kts 57°
2026-05-09 05:21 52.22498 -80.03194 44631 ft 522 kts 57°
2026-05-09 05:22 52.26381 -79.93199 44631 ft 522 kts 57°
2026-05-09 05:22 52.30284 -79.83114 44631 ft 522 kts 57°
2026-05-09 05:23 52.34135 -79.73126 44632 ft 522 kts 57°
2026-05-09 05:23 52.38036 -79.62967 44641 ft 522 kts 57°
2026-05-09 05:24 52.41865 -79.52954 44647 ft 522 kts 57°
2026-05-09 05:24 52.45713 -79.42853 44644 ft 522 kts 57°
2026-05-09 05:25 52.49552 -79.32735 44639 ft 522 kts 58°
2026-05-09 05:25 52.55293 -79.17528 44644 ft 522 kts 58°
2026-05-09 05:26 52.59087 -79.07430 44641 ft 522 kts 58°
2026-05-09 05:26 52.62925 -78.97170 44641 ft 522 kts 58°
2026-05-09 05:27 52.66730 -78.86957 44646 ft 523 kts 58°
2026-05-09 05:27 52.70513 -78.76765 44650 ft 523 kts 58°
2026-05-09 05:28 52.74298 -78.66524 44643 ft 523 kts 58°
2026-05-09 05:28 52.78073 -78.56267 44645 ft 522 kts 58°
2026-05-09 05:29 52.81853 -78.45959 44645 ft 522 kts 58°
2026-05-09 05:29 52.85571 -78.35777 44646 ft 521 kts 58°
2026-05-09 05:30 52.89320 -78.25468 44652 ft 521 kts 59°
2026-05-09 05:30 52.93029 -78.15227 44650 ft 522 kts 59°
2026-05-09 05:31 52.96775 -78.04839 44655 ft 523 kts 59°
2026-05-09 05:31 53.00488 -77.94501 44652 ft 522 kts 59°
2026-05-09 05:32 53.04195 -77.84137 44653 ft 522 kts 59°
2026-05-09 05:32 53.07874 -77.73810 44655 ft 522 kts 59°
2026-05-09 05:33 53.11519 -77.63535 44654 ft 522 kts 59°
2026-05-09 05:33 53.15257 -77.52953 44651 ft 521 kts 59°
2026-05-09 05:34 53.18936 -77.42494 44659 ft 521 kts 59°
2026-05-09 05:34 53.20724 -77.37395 45192 ft 511 kts 59°
2026-05-09 05:34 53.22523 -77.32256 45562 ft 507 kts 60°
2026-05-09 05:35 53.24296 -77.27177 45808 ft 505 kts 60°
2026-05-09 05:35 53.26065 -77.22099 46030 ft 504 kts 60°
2026-05-09 05:35 53.27844 -77.16988 46230 ft 503 kts 60°
2026-05-09 05:35 53.29579 -77.11986 46408 ft 503 kts 60°
2026-05-09 05:36 53.31332 -77.06928 46577 ft 503 kts 60°
2026-05-09 05:36 53.33089 -77.01842 46662 ft 502 kts 60°
2026-05-09 05:36 53.36573 -76.91734 46672 ft 506 kts 60°
2026-05-09 05:37 53.40135 -76.81355 46677 ft 513 kts 60°
2026-05-09 05:37 53.43697 -76.70931 46683 ft 515 kts 60°
2026-05-09 05:38 53.47242 -76.60515 46684 ft 517 kts 60°
2026-05-09 05:38 53.50820 -76.49957 46683 ft 518 kts 60°
2026-05-09 05:39 53.54370 -76.39435 46677 ft 519 kts 60°
2026-05-09 05:39 53.57928 -76.28846 46678 ft 519 kts 61°
2026-05-09 05:40 53.61477 -76.18236 46676 ft 518 kts 61°
2026-05-09 05:40 53.65007 -76.07637 46679 ft 519 kts 61°
2026-05-09 05:41 53.68525 -75.97031 46676 ft 519 kts 61°
2026-05-09 05:41 53.72033 -75.86407 46674 ft 519 kts 61°
2026-05-09 05:42 53.75536 -75.75752 46671 ft 519 kts 61°
2026-05-09 05:42 53.79026 -75.65089 46656 ft 519 kts 61°
2026-05-09 05:43 53.82533 -75.54329 46658 ft 519 kts 61°
2026-05-09 05:43 53.85995 -75.43661 46655 ft 519 kts 61°
2026-05-09 05:44 53.89479 -75.32876 46659 ft 519 kts 62°
2026-05-09 05:44 53.92917 -75.22186 46662 ft 519 kts 62°
2026-05-09 05:45 53.96393 -75.11327 46666 ft 518 kts 62°
2026-05-09 05:45 53.99821 -75.00444 46670 ft 518 kts 66°
2026-05-09 05:46 54.02878 -74.89329 46679 ft 518 kts 65°
2026-05-09 05:46 54.05895 -74.78223 46684 ft 519 kts 66°
2026-05-09 05:47 54.08889 -74.67086 46686 ft 519 kts 66°
2026-05-09 05:47 54.11903 -74.55816 46684 ft 518 kts 66°
2026-05-09 05:48 54.14886 -74.44604 46686 ft 518 kts 66°
2026-05-09 05:48 54.17842 -74.33437 46683 ft 518 kts 66°
2026-05-09 05:49 54.20804 -74.22196 46681 ft 518 kts 66°
2026-05-09 05:49 54.23735 -74.11012 46687 ft 518 kts 67°
2026-05-09 05:50 54.26684 -73.99709 46683 ft 518 kts 67°
2026-05-09 05:50 54.29602 -73.88465 46676 ft 519 kts 67°
2026-05-09 05:51 54.32532 -73.77116 46673 ft 519 kts 67°
2026-05-09 05:51 54.35449 -73.65763 46673 ft 519 kts 67°
2026-05-09 05:52 54.38345 -73.54436 46671 ft 519 kts 67°
2026-05-09 05:52 54.41239 -73.43055 46665 ft 519 kts 67°
2026-05-09 05:53 54.44126 -73.31649 46662 ft 519 kts 68°
2026-05-09 05:53 54.46904 -73.20612 46660 ft 519 kts 68°
2026-05-09 05:54 54.49762 -73.09203 46660 ft 520 kts 68°
2026-05-09 05:54 54.52591 -72.97849 46658 ft 520 kts 68°
2026-05-09 05:55 54.55432 -72.86388 46668 ft 520 kts 68°
2026-05-09 05:55 54.58253 -72.74952 46675 ft 519 kts 68°
2026-05-09 05:56 54.61069 -72.63475 46679 ft 519 kts 68°
2026-05-09 05:56 54.63853 -72.52069 46682 ft 519 kts 68°
2026-05-09 05:57 54.66652 -72.40537 46683 ft 520 kts 68°
2026-05-09 05:57 54.69443 -72.28980 46683 ft 521 kts 69°
2026-05-09 05:58 54.72229 -72.17386 46679 ft 521 kts 69°
2026-05-09 05:58 54.74973 -72.05900 46682 ft 520 kts 69°
2026-05-09 05:59 54.77752 -71.94207 46680 ft 520 kts 69°
2026-05-09 05:59 54.80487 -71.82634 46680 ft 519 kts 69°
2026-05-09 06:00 54.83228 -71.70980 46673 ft 520 kts 69°
2026-05-09 06:00 54.85934 -71.59405 46666 ft 520 kts 69°
2026-05-09 06:01 54.88651 -71.47723 46664 ft 520 kts 69°
2026-05-09 06:01 54.91343 -71.36082 46659 ft 520 kts 69°
2026-05-09 06:02 54.94038 -71.24369 46655 ft 520 kts 70°
2026-05-09 06:02 54.96717 -71.12658 46656 ft 519 kts 70°
2026-05-09 06:03 54.99378 -71.00961 46668 ft 520 kts 70°
2026-05-09 06:03 55.00830 -70.94553 46669 ft 520 kts 70°
2026-05-09 06:04 55.03255 -70.83802 46677 ft 521 kts 70°
2026-05-09 06:04 55.03801 -70.81374 46679 ft 521 kts 70°
2026-05-09 06:05 55.06432 -70.69634 46681 ft 521 kts 70°
2026-05-09 06:05 55.09058 -70.57855 46676 ft 521 kts 70°
2026-05-09 06:06 55.11699 -70.45937 46672 ft 521 kts 70°
2026-05-09 06:06 55.14287 -70.34193 46688 ft 521 kts 71°
2026-05-09 06:07 55.16885 -70.22333 46693 ft 521 kts 71°
2026-05-09 06:07 55.19456 -70.10535 46693 ft 520 kts 71°
2026-05-09 06:08 55.22028 -69.98660 46680 ft 520 kts 71°
2026-05-09 06:08 55.24564 -69.86884 46690 ft 519 kts 71°
2026-05-09 06:09 55.27094 -69.75067 46691 ft 520 kts 71°
2026-05-09 06:09 55.29629 -69.63161 46696 ft 521 kts 71°
2026-05-09 06:10 55.32161 -69.51197 46691 ft 521 kts 71°
2026-05-09 06:10 55.34653 -69.39351 46700 ft 520 kts 71°
2026-05-09 06:11 55.37147 -69.27425 46714 ft 520 kts 71°
2026-05-09 06:11 55.39633 -69.15469 46723 ft 521 kts 72°
2026-05-09 06:12 55.42093 -69.03567 46725 ft 521 kts 72°
2026-05-09 06:12 55.44550 -68.91612 46720 ft 521 kts 72°
2026-05-09 06:13 55.46991 -68.79657 46718 ft 521 kts 72°
2026-05-09 06:13 55.49431 -68.67638 46723 ft 521 kts 72°
2026-05-09 06:14 55.51850 -68.55648 46731 ft 521 kts 72°
2026-05-09 06:14 55.54263 -68.43617 46734 ft 521 kts 72°
2026-05-09 06:15 55.56665 -68.31564 46739 ft 521 kts 72°
2026-05-09 06:15 55.59066 -68.19448 46742 ft 521 kts 73°
2026-05-09 06:16 55.61427 -68.07458 46737 ft 521 kts 73°
2026-05-09 06:16 55.63795 -67.95355 46727 ft 521 kts 73°
2026-05-09 06:17 55.66151 -67.83237 46715 ft 522 kts 73°